FENGYUN 1C DEB, 33728

Orbit data source: Space-Track

FENGYUN 1C DEB, 33728 is space debris in SSO originally from a launch on Mon, 10 May 1999 UTC launched from the Taiyaun Space Center, China (TSC). Fengyun 1C debris stems from the Chinese weather satellite Fengyun-1C, which was intentionally destroyed by a Chinese anti-satellite missile in 2007. This event dramatically increased the amount of space debris, with thousands of trackable fragments posing hazards to satellites and human spaceflight. The Fengyun 1C debris cloud has become a focal point in discussions about space sustainability and the need for international regulations to prevent the creation of new debris.

Loading next visibility...
Identifier
33728, 1999-025DHR
Orbit
SSO
Country
Flag of CNCN / PRC
Related business
Manufacturer
Unknown
Mission
Spacecraft
Bus & Motor
Unknown
Mass
Unknown
Launch date (UTC)
1999-05-10 (26 years ago)
Launch vehicle
Unknown
Launch site
Taiyaun Space Center, China (TSC)
Object type
Payload
Rocket body
Debris
Shape & HBR
Unknown shape, 0.1 m
Radar Cross Section
Small (<0.1 m²)

Expand to show TLE details & history
Last TLE update: 17 hours ago

TLE from 17 hours ago
0 FENGYUN 1C DEB
1 33728U 99025DHR 25297.40947088  .00008726  00000-0  70174-3 0  9998
2 33728  98.9867 346.4016 0150500  14.1112 346.4237 14.91767962975649
Epoch: 2025-10-24T09:49Z
TLE epoch observation values (Epoch: 2025-10-24T09:49:38.284Z)
Latitude
-0.00004°
Longitude
165.93731°
Altitude
493.518 km
Speed
7.674 km/s
True Right ascension
23h 05m 36s
True Declination
0° 00' 00"
Sunlit
Object was in full shadow at epoch
Visualization orbit readout
Latitude
Unknown
Longitude
Unknown
Altitude
Unknown
Speed
Unknown
Apparent Right ascension
Unknown
Apparent Declination
Unknown
Sunlit
N/A
Visualization observer readout
Local Sidereal Time
21:57:05
Azimuth
Unknown
Elevation
Unknown
Doppler factor
Unknown
Orbital elements
Apogee altitude
694.362 km
Perigee altitude
484.636 km
Semi-major axis
6,967.636 km
Eccentricity
0.01505
Inclination
98.9867°
RAAN
346.4016°
Arg. of periapsis
14.1112°
True anomaly
346.01133°
Mean anomaly
346.4237°
Eccentric anomaly
346.21828°
Mean motion
3.73177 °/min
Orbital period
96.47 mins
BSTAR
0.00070174
Loading maneuver chart data...
Computing Atmospheric mass density...

Documentation

Showing up to 5 results
|